Date,TemperatureHighF,TemperatureAvgF,TemperatureLowF,DewpointHighF,DewpointAvgF,DewpointLowF,HumidityHigh,HumidityAvg,HumidityLow,PressureMaxIn,PressureMinIn,WindSpeedMaxMPH,WindSpeedAvgMPH,GustSpeedMaxMPH,PrecipitationSumIn
2013-1-1,82,62,49,66,54,48,98,79,38,30.27,30.06,0,0,0,0.00
2013-1-2,87,68,56,68,60,55,98,80,39,30.09,29.97,0,0,0,0.00
2013-1-3,82,66,56,70,62,56,98,89,52,30.15,30.03,0,0,0,0.00
2013-1-4,68,64,61,66,63,61,98,97,91,30.27,30.12,0,0,0,0.00
2013-1-5,79,67,59,67,61,54,98,84,47,30.30,30.18,0,0,0,0.13
2013-1-6,88,70,61,78,67,60,98,92,60,30.27,30.06,0,0,0,1.04
2013-1-7,73,66,62,67,64,61,98,93,68,30.21,30.12,0,0,0,36.08
2013-1-8,85,72,66,74,68,64,98,88,53,30.24,30.12,57,0,57,0.09
2013-1-9,88,74,68,75,69,64,98,87,48,30.33,30.18,57,0,57,0.00
2013-1-10,85,72,61,74,66,61,98,84,48,30.33,30.21,0,0,0,0.00
2013-1-11,87,70,60,75,64,59,98,84,42,30.30,30.18,0,0,0,0.00
2013-1-12,87,69,58,74,63,57,98,85,44,30.21,30.09,0,0,0,0.00
2013-1-13,90,69,56,70,62,56,98,82,39,30.18,30.06,0,0,0,0.00
2013-1-14,87,68,56,72,62,55,98,83,43,30.24,30.12,0,0,0,0.00
2013-1-15,87,69,59,73,62,58,98,83,41,30.18,30.06,0,0,0,0.00
2013-1-16,88,70,56,70,59,49,98,76,29,30.15,30.00,0,0,0,0.00
2013-1-17,86,68,54,70,57,41,98,72,29,30.09,29.91,0,0,0,0.00
2013-1-18,74,58,44,60,46,33,94,65,36,30.27,30.06,0,0,0,0.00
2013-1-19,75,68,64,65,61,54,98,79,56,30.27,30.12,0,0,0,0.04
2013-1-20,76,66,60,67,62,58,98,89,64,30.18,30.06,0,0,0,0.00
2013-1-21,83,64,60,69,61,56,98,93,46,30.12,29.97,0,0,0,0.08
2013-1-22,72,60,46,60,44,33,98,60,27,30.30,30.03,0,0,0,0.00
2013-1-23,75,56,44,44,39,33,87,58,25,30.39,30.27,0,0,0,0.00
2013-1-24,80,55,39,50,40,33,98,65,22,30.36,30.24,0,0,0,0.00
2013-1-25,85,60,45,59,46,36,98,69,20,30.33,30.18,0,0,0,0.00
2013-1-26,85,60,44,56,46,34,98,69,20,30.33,30.18,0,0,0,0.00
2013-1-27,82,63,48,66,52,46,98,75,30,30.36,30.24,0,0,0,0.00
2013-1-28,77,70,67,68,63,55,98,79,49,30.36,30.24,0,0,0,0.00
2013-1-29,86,71,59,72,64,58,98,82,44,30.30,30.12,0,0,0,0.00
2013-1-30,87,72,63,66,59,50,98,69,30,30.18,29.91,0,0,0,0.00
2013-1-31,73,62,47,68,45,21,98,62,22,30.24,29.91,0,0,0,0.08
2013-2-1,74,52,40,33,27,20,74,42,17,30.39,30.21,0,0,0,0.20
2013-2-2,79,54,37,49,37,31,94,59,22,30.33,30.15,0,0,0,0.20
2013-2-3,77,56,44,50,39,27,98,60,22,30.21,30.06,0,0,0,0.00
2013-2-4,82,55,38,48,37,30,98,57,20,30.18,30.03,0,0,0,0.00
2013-2-5,86,58,39,49,40,33,98,60,19,30.15,30.00,0,0,0,0.00
2013-2-6,86,60,52,64,52,45,96,78,26,30.15,30.06,0,0,0,0.00
2013-2-7,89,71,57,65,56,48,97,65,27,30.12,29.88,0,0,0,0.00
2013-2-8,88,69,59,66,56,39,98,71,19,30.09,29.88,0,0,0,0.00
2013-2-9,79,65,53,61,54,46,98,72,33,30.21,30.06,0,0,0,0.00
2013-2-10,83,69,61,58,52,45,86,58,31,30.30,30.18,0,0,0,0.00
2013-2-11,88,71,58,66,56,43,98,65,22,30.24,30.06,0,0,0,0.00
2013-2-12,89,73,58,68,59,48,98,68,26,30.15,29.94,0,0,0,0.00
2013-2-13,90,75,64,70,62,50,98,69,28,30.00,29.82,0,0,0,0.00
2013-2-14,73,63,59,66,60,57,98,91,65,30.06,29.94,0,0,0,0.87
2013-2-15,76,62,57,61,57,49,98,85,43,30.09,29.94,0,0,0,0.05
2013-2-16,75,61,48,59,42,21,98,60,21,30.09,29.88,0,0,0,0.00
2013-2-17,59,48,39,29,18,9,48,31,17,30.33,30.09,0,0,0,0.00